This is the latest recevied weather packets stored in our database for station/object OZ0AJ-13. If no packets are shown the sender has not sent any weather packets the latest 1 day(s).
| Time | Temp. | Humidity | Pressure | Rain* | Wind** | Luminosity | Snow |
|---|---|---|---|---|---|---|---|
| 1777981229 | 13.33° C | 64% | 1011.9 hPa | 0 mm | 1.34 m/s, 19° | - | - |
| 1777980625 | 13.33° C | 64% | 1012.1 hPa | 0 mm | 1.34 m/s, 19° | - | - |
| 1777980021 | 12.22° C | 69% | 1012.1 hPa | 0 mm | 1.34 m/s, 19° | - | - |
| 1777979417 | 12.22° C | 67% | 1012.2 hPa | 0 mm | 1.34 m/s, 19° | - | - |
| 1777978834 | 12.78° C | 66% | 1012.2 hPa | 0 mm | 1.34 m/s, 19° | - | - |
| 1777978229 | 12.78° C | 57% | 1012.3 hPa | 0 mm | 1.34 m/s, 19° | - | - |
| 1777977626 | 12.78° C | 58% | 1012.3 hPa | 0 mm | 1.34 m/s, 19° | - | - |
| 1777977022 | 12.78° C | 61% | 1012.4 hPa | 0 mm | 1.34 m/s, 19° | - | - |
| 1777976418 | 12.78° C | 60% | 1012.4 hPa | 0 mm | 1.34 m/s, 19° | - | - |
| 1777975834 | 12.78° C | 60% | 1012.5 hPa | 0 mm | 1.34 m/s, 19° | - | - |
| 1777975230 | 12.22° C | 62% | 1012.5 hPa | 0 mm | 1.34 m/s, 19° | - | - |
| 1777974626 | 12.78° C | 65% | 1012.5 hPa | 0 mm | 1.34 m/s, 19° | - | - |
| 1777974022 | 12.78° C | 64% | 1012.6 hPa | 0 mm | 1.34 m/s, 19° | - | - |
| 1777973418 | 12.22° C | 67% | 1012.5 hPa | 0 mm | 1.34 m/s, 19° | - | - |
| 1777972834 | 11.67° C | 68% | 1012.6 hPa | 0 mm | 1.34 m/s, 19° | - | - |
| 1777972230 | 11.11° C | 70% | 1012.5 hPa | 0 mm | 1.34 m/s, 19° | - | - |
| 1777971626 | 11.11° C | 71% | 1012.5 hPa | 0 mm | 1.34 m/s, 19° | - | - |
| 1777971022 | 11.11° C | 71% | 1012.7 hPa | 0 mm | 1.34 m/s, 19° | - | - |
| 1777970418 | 11.11° C | 71% | 1012.6 hPa | 0 mm | 1.34 m/s, 19° | - | - |
| 1777969834 | 11.67° C | 71% | 1012.6 hPa | 0 mm | 1.34 m/s, 19° | - | - |
| 1777969230 | 11.11° C | 73% | 1012.7 hPa | 0 mm | 1.34 m/s, 19° | - | - |
| 1777968626 | 10.56° C | 74% | 1012.5 hPa | 0 mm | 1.34 m/s, 19° | - | - |
| 1777968023 | 10.56° C | 78% | 1012.5 hPa | 0 mm | 1.34 m/s, 19° | - | - |
| 1777967419 | 9.44° C | 80% | 1012.6 hPa | 0 mm | 1.34 m/s, 19° | - | - |
| 1777966842 | 9.44° C | 81% | 1012.7 hPa | 0 mm | 1.34 m/s, 19° | - | - |
* Rain latest hour (hover to see other rain measurements)
** Current wind speed in m/s (hover to see current wind gust speed)